| time (UTC) | temp F | wind direction | speed MPH | gust MPH | rain 1hr in | rain 24hr in | rain mn in | humidity % | barometer mb |
| 20260906150532 | 81 | 0 | 0.0 | 1.0 | 0.00 | 0.29 | 0.00 | 84 | 1013.0 |
| 20260906150048 | 82 | 0 | 0.0 | 1.0 | 0.00 | 0.29 | 0.00 | 78 | 1013.0 |
| 20260906145532 | 84 | 0 | 0.0 | 1.0 | 0.00 | 0.29 | 0.00 | 82 | 1012.9 |
| 20260906145035 | 83 | 0 | 0.0 | 3.0 | 0.00 | 0.29 | 0.00 | 77 | 1012.8 |
| 20260906144556 | 83 | 0 | 0.0 | 3.0 | 0.00 | 0.29 | 0.00 | 85 | 1012.8 |
| 20260906144035 | 83 | 0 | 0.0 | 3.0 | 0.00 | 0.29 | 0.00 | 81 | 1012.7 |
| 20260906143534 | 82 | 0 | 0.0 | 3.0 | 0.00 | 0.29 | 0.00 | 81 | 1012.7 |
| 20260906143057 | 82 | 0 | 0.0 | 3.0 | 0.00 | 0.29 | 0.00 | 82 | 1012.6 |
| 20260906142532 | 82 | 0 | 0.0 | 2.0 | 0.00 | 0.29 | 0.00 | 85 | 1012.6 |
| 20260906142033 | 81 | 0 | 0.0 | 2.0 | 0.00 | 0.29 | 0.00 | 85 | 1012.4 |
| 20260906141553 | 81 | 0 | 0.0 | 2.0 | 0.00 | 0.29 | 0.00 | 85 | 1012.4 |
| 20260906141032 | 80 | 0 | 0.0 | 1.0 | 0.00 | 0.29 | 0.00 | 87 | 1012.4 |
| 20260906140534 | 80 | 0 | 0.0 | 1.0 | 0.00 | 0.29 | 0.00 | 89 | 1012.4 |
| 20260906140053 | 80 | 0 | 0.0 | 4.0 | 0.00 | 0.29 | 0.00 | 90 | 1012.3 |
| 20260906135532 | 80 | 0 | 0.0 | 4.0 | 0.00 | 0.29 | 0.00 | 88 | 1012.2 |
| 20260906135031 | 80 | 0 | 0.0 | 3.0 | 0.00 | 0.29 | 0.00 | 89 | 1012.1 |
| 20260906134615 | 80 | 200 | 0.0 | 3.0 | 0.00 | 0.29 | 0.00 | 88 | 1012.1 |
| 20260906134033 | 79 | 0 | 0.0 | 2.0 | 0.00 | 0.29 | 0.00 | 90 | 1012.1 |
| 20260906133531 | 79 | 0 | 0.0 | 2.0 | 0.00 | 0.29 | 0.00 | 92 | 1012.1 |
| 20260906133057 | 78 | 0 | 0.0 | 1.0 | 0.00 | 0.29 | 0.00 | 92 | 1012.1 |
| 20260906132534 | 78 | 0 | 0.0 | 0.0 | 0.00 | 0.29 | 0.00 | 96 | 1012.1 |
| 20260906132033 | 77 | 0 | 0.0 | 0.0 | 0.00 | 0.29 | 0.00 | 95 | 1012.2 |
| 20260906131553 | 77 | 0 | 0.0 | 2.0 | 0.00 | 0.29 | 0.00 | 96 | 1012.1 |
| 20260906131032 | 77 | 0 | 0.0 | 2.0 | 0.00 | 0.29 | 0.00 | 96 | 1012.1 |
| 20260906130532 | 77 | 0 | 0.0 | 1.0 | 0.00 | 0.29 | 0.00 | 96 | 1012.2 |
| 20260906130114 | 77 | 0 | 0.0 | 1.0 | 0.00 | 0.29 | 0.00 | 97 | 1012.1 |
| 20260906125532 | 76 | 0 | 0.0 | 1.0 | 0.00 | 0.29 | 0.00 | 97 | 1011.9 |
| 20260906125032 | 75 | 0 | 0.0 | 1.0 | 0.00 | 0.29 | 0.00 | 97 | 1011.9 |
| 20260906124608 | 75 | 0 | 0.0 | 1.0 | 0.00 | 0.29 | 0.00 | 97 | 1011.8 |
| 20260906124032 | 75 | 0 | 0.0 | 1.0 | 0.00 | 0.29 | 0.00 | 97 | 1011.9 |
| 20260906123532 | 74 | 0 | 0.0 | 0.0 | 0.00 | 0.29 | 0.00 | 97 | 1011.9 |
| 20260906123102 | 73 | 0 | 0.0 | 0.0 | 0.00 | 0.29 | 0.00 | 97 | 1011.8 |
| 20260906122533 | 73 | 0 | 0.0 | 1.0 | 0.00 | 0.29 | 0.00 | 97 | 1011.9 |
| 20260906122029 | 73 | 0 | 0.0 | 1.0 | 0.00 | 0.29 | 0.00 | 97 | 1011.9 |
| 20260906121606 | 72 | 0 | 0.0 | 0.0 | 0.00 | 0.29 | 0.00 | 97 | 1011.9 |
| 20260906121032 | 72 | 0 | 0.0 | 0.0 | 0.00 | 0.29 | 0.00 | 97 | 1011.9 |
| 20260906120532 | 72 | 0 | 0.0 | 0.0 | 0.00 | 0.29 | 0.00 | 97 | 1011.9 |
| 20260906120106 | 72 | 0 | 0.0 | 0.0 | 0.00 | 0.29 | 0.00 | 97 | 1011.8 |
| 20260906115532 | 72 | 0 | 0.0 | 0.0 | 0.00 | 0.29 | 0.00 | 97 | 1011.9 |
| 20260906115031 | 71 | 0 | 0.0 | 0.0 | 0.00 | 0.29 | 0.00 | 97 | 1011.9 |
| 20260906114546 | 71 | 0 | 0.0 | 0.0 | 0.00 | 0.29 | 0.00 | 97 | 1011.9 |
| 20260906114031 | 71 | 0 | 0.0 | 0.0 | 0.00 | 0.29 | 0.00 | 97 | 1011.9 |
| 20260906113532 | 71 | 0 | 0.0 | 0.0 | 0.00 | 0.29 | 0.00 | 97 | 1011.8 |
| 20260906113057 | 71 | 0 | 0.0 | 0.0 | 0.00 | 0.29 | 0.00 | 97 | 1011.8 |
| 20260906112532 | 71 | 0 | 0.0 | 0.0 | 0.00 | 0.29 | 0.00 | 97 | 1011.7 |
| 20260906112034 | 71 | 0 | 0.0 | 0.0 | 0.00 | 0.29 | 0.00 | 97 | 1011.7 |
| 20260906111552 | 71 | 0 | 0.0 | 0.0 | 0.00 | 0.29 | 0.00 | 97 | 1011.7 |
| 20260906111033 | 71 | 0 | 0.0 | 0.0 | 0.00 | 0.29 | 0.00 | 97 | 1011.7 |
| 20260906110533 | 71 | 0 | 0.0 | 0.0 | 0.00 | 0.29 | 0.00 | 97 | 1011.5 |
| 20260906110052 | 71 | 0 | 0.0 | 0.0 | 0.00 | 0.29 | 0.00 | 97 | 1011.5 |
| 20260906105532 | 71 | 0 | 0.0 | 0.0 | 0.00 | 0.29 | 0.00 | 97 | 1011.5 |
| 20260906105032 | 71 | 0 | 0.0 | 0.0 | 0.00 | 0.29 | 0.00 | 97 | 1011.4 |
| 20260906104548 | 71 | 0 | 0.0 | 0.0 | 0.00 | 0.29 | 0.00 | 97 | 1011.3 |
| 20260906104032 | 71 | 0 | 0.0 | 0.0 | 0.00 | 0.29 | 0.00 | 97 | 1011.3 |
| 20260906103531 | 71 | 0 | 0.0 | 0.0 | 0.00 | 0.29 | 0.00 | 97 | 1011.2 |
| 20260906103054 | 71 | 0 | 0.0 | 0.0 | 0.00 | 0.29 | 0.00 | 97 | 1011.0 |
| 20260906102534 | 71 | 0 | 0.0 | 0.0 | 0.00 | 0.29 | 0.00 | 97 | 1011.0 |
| 20260906102031 | 71 | 0 | 0.0 | 0.0 | 0.00 | 0.29 | 0.00 | 97 | 1010.9 |
| 20260906101556 | 71 | 0 | 0.0 | 0.0 | 0.00 | 0.29 | 0.00 | 97 | 1010.9 |
| 20260906101036 | 72 | 0 | 0.0 | 0.0 | 0.00 | 0.29 | 0.00 | 97 | 1010.9 |
| 20260906100532 | 72 | 0 | 0.0 | 0.0 | 0.00 | 0.29 | 0.00 | 97 | 1010.8 |
| 20260906100052 | 72 | 0 | 0.0 | 0.0 | 0.00 | 0.29 | 0.00 | 97 | 1010.8 |
| 20260906095533 | 72 | 0 | 0.0 | 0.0 | 0.00 | 0.29 | 0.00 | 97 | 1010.6 |
| 20260906095032 | 72 | 0 | 0.0 | 0.0 | 0.00 | 0.29 | 0.00 | 97 | 1010.4 |
| 20260906094547 | 72 | 0 | 0.0 | 0.0 | 0.00 | 0.29 | 0.00 | 97 | 1010.4 |
| 20260906094032 | 72 | 0 | 0.0 | 0.0 | 0.00 | 0.29 | 0.00 | 97 | 1010.4 |
| 20260906093534 | 72 | 0 | 0.0 | 0.0 | 0.00 | 0.29 | 0.00 | 97 | 1010.4 |
| 20260906093052 | 72 | 0 | 0.0 | 0.0 | 0.00 | 0.29 | 0.00 | 97 | 1010.4 |
| 20260906092534 | 72 | 0 | 0.0 | 0.0 | 0.00 | 0.29 | 0.00 | 97 | 1010.2 |
| 20260906092035 | 72 | 0 | 0.0 | 0.0 | 0.00 | 0.29 | 0.00 | 97 | 1010.2 |
| 20260906091554 | 72 | 0 | 0.0 | 0.0 | 0.00 | 0.29 | 0.00 | 97 | 1010.1 |
| 20260906091034 | 72 | 0 | 0.0 | 0.0 | 0.00 | 0.29 | 0.00 | 97 | 1010.1 |
| 20260906090532 | 72 | 0 | 0.0 | 0.0 | 0.00 | 0.29 | 0.00 | 97 | 1010.0 |
| 20260906090055 | 72 | 0 | 0.0 | 0.0 | 0.00 | 0.29 | 0.00 | 97 | 1010.0 |
| 20260906085531 | 73 | 0 | 0.0 | 0.0 | 0.00 | 0.29 | 0.00 | 97 | 1009.9 |
| 20260906085032 | 73 | 0 | 0.0 | 0.0 | 0.00 | 0.29 | 0.00 | 97 | 1010.0 |
| 20260906084549 | 73 | 0 | 0.0 | 0.0 | 0.00 | 0.29 | 0.00 | 97 | 1009.9 |
| 20260906084036 | 73 | 0 | 0.0 | 0.0 | 0.00 | 0.29 | 0.00 | 97 | 1010.0 |
| 20260906083533 | 73 | 0 | 0.0 | 0.0 | 0.00 | 0.29 | 0.00 | 97 | 1009.9 |
| 20260906083046 | 73 | 0 | 0.0 | 0.0 | 0.00 | 0.29 | 0.00 | 97 | 1010.1 |
| 20260906082531 | 73 | 0 | 0.0 | 0.0 | 0.00 | 0.29 | 0.00 | 97 | 1010.1 |
| 20260906082035 | 73 | 0 | 0.0 | 0.0 | 0.00 | 0.29 | 0.00 | 97 | 1009.9 |
| 20260906081556 | 73 | 0 | 0.0 | 0.0 | 0.00 | 0.29 | 0.00 | 97 | 1009.9 |
| 20260906081035 | 73 | 0 | 0.0 | 0.0 | 0.00 | 0.29 | 0.00 | 97 | 1009.9 |
| 20260906080536 | 73 | 0 | 0.0 | 0.0 | 0.00 | 0.29 | 0.00 | 97 | 1010.0 |
| 20260906080056 | 73 | 0 | 0.0 | 0.0 | 0.00 | 0.29 | 0.00 | 97 | 1010.0 |
| 20260906075535 | 73 | 0 | 0.0 | 0.0 | 0.00 | 0.29 | 0.00 | 97 | 1010.0 |
| 20260906075032 | 73 | 0 | 0.0 | 0.0 | 0.00 | 0.29 | 0.00 | 97 | 1009.9 |
| 20260906074553 | 73 | 0 | 0.0 | 0.0 | 0.00 | 0.29 | 0.00 | 97 | 1009.8 |
| 20260906074034 | 73 | 0 | 0.0 | 0.0 | 0.00 | 0.29 | 0.00 | 97 | 1009.9 |
| 20260906073535 | 73 | 0 | 0.0 | 0.0 | 0.00 | 0.29 | 0.00 | 97 | 1009.9 |
| 20260906073058 | 73 | 0 | 0.0 | 0.0 | 0.00 | 0.29 | 0.00 | 97 | 1009.9 |
| 20260906072535 | 73 | 0 | 0.0 | 0.0 | 0.00 | 0.29 | 0.00 | 97 | 1009.8 |
| 20260906072034 | 73 | 0 | 0.0 | 0.0 | 0.00 | 0.29 | 0.00 | 97 | 1009.9 |
| 20260906071559 | 73 | 0 | 0.0 | 0.0 | 0.00 | 0.29 | 0.00 | 97 | 1009.8 |
| 20260906071034 | 73 | 0 | 0.0 | 0.0 | 0.00 | 0.29 | 0.00 | 97 | 1009.7 |
| 20260906070534 | 73 | 0 | 0.0 | 0.0 | 0.00 | 0.29 | 0.00 | 97 | 1009.7 |
| 20260906070055 | 73 | 0 | 0.0 | 0.0 | 0.00 | 0.29 | 0.00 | 97 | 1009.8 |
| 20260906065533 | 73 | 0 | 0.0 | 0.0 | 0.00 | 0.29 | 0.00 | 97 | 1009.8 |
| 20260906065034 | 73 | 0 | 0.0 | 0.0 | 0.00 | 0.29 | 0.00 | 97 | 1009.7 |
| 20260906064554 | 73 | 0 | 0.0 | 0.0 | 0.00 | 0.29 | 0.00 | 97 | 1009.8 |
| 20260906064034 | 73 | 0 | 0.0 | 0.0 | 0.00 | 0.29 | 0.00 | 97 | 1009.9 |
| 20260906063533 | 73 | 0 | 0.0 | 0.0 | 0.00 | 0.29 | 0.00 | 97 | 1010.0 |
| 20260906063049 | 73 | 0 | 0.0 | 0.0 | 0.00 | 0.29 | 0.00 | 97 | 1009.9 |
| 20260906062533 | 73 | 0 | 0.0 | 0.0 | 0.00 | 0.29 | 0.00 | 97 | 1010.0 |
| 20260906062035 | 73 | 0 | 0.0 | 0.0 | 0.00 | 0.29 | 0.00 | 97 | 1010.1 |
| 20260906061613 | 73 | 0 | 0.0 | 0.0 | 0.00 | 0.29 | 0.00 | 97 | 1010.1 |
| 20260906061036 | 73 | 0 | 0.0 | 0.0 | 0.00 | 0.29 | 0.00 | 97 | 1010.1 |
| 20260906060534 | 73 | 0 | 0.0 | 0.0 | 0.00 | 0.29 | 0.00 | 97 | 1010.0 |
| 20260906060100 | 73 | 0 | 0.0 | 0.0 | 0.00 | 0.29 | 0.00 | 97 | 1010.1 |
| 20260906055533 | 73 | 0 | 0.0 | 0.0 | 0.00 | 0.29 | 0.00 | 97 | 1010.3 |
| 20260906055033 | 73 | 0 | 0.0 | 0.0 | 0.00 | 0.29 | 0.00 | 97 | 1010.3 |
| 20260906054552 | 73 | 0 | 0.0 | 0.0 | 0.00 | 0.29 | 0.00 | 97 | 1010.4 |
| 20260906054033 | 73 | 0 | 0.0 | 0.0 | 0.00 | 0.29 | 0.00 | 97 | 1010.4 |
| 20260906053531 | 73 | 0 | 0.0 | 0.0 | 0.00 | 0.29 | 0.00 | 97 | 1010.6 |
| 20260906053044 | 73 | 0 | 0.0 | 0.0 | 0.00 | 0.29 | 0.00 | 97 | 1010.7 |
| 20260906052534 | 73 | 0 | 0.0 | 0.0 | 0.00 | 0.29 | 0.00 | 97 | 1010.8 |
| 20260906052034 | 73 | 0 | 0.0 | 0.0 | 0.00 | 0.29 | 0.00 | 97 | 1010.9 |
| 20260906051604 | 73 | 0 | 0.0 | 0.0 | 0.00 | 0.29 | 0.00 | 97 | 1010.9 |
| 20260906051034 | 73 | 0 | 0.0 | 0.0 | 0.00 | 0.29 | 0.00 | 97 | 1010.9 |
| 20260906050534 | 73 | 0 | 0.0 | 0.0 | 0.00 | 0.29 | 0.00 | 97 | 1010.9 |
| 20260906050053 | 73 | 0 | 0.0 | 0.0 | 0.00 | 0.29 | 0.00 | 97 | 1010.9 |
| 20260906045536 | 73 | 0 | 0.0 | 0.0 | 0.00 | 0.29 | 0.00 | 97 | 1010.9 |
| 20260906045033 | 73 | 0 | 0.0 | 0.0 | 0.00 | 0.29 | 0.00 | 97 | 1011.2 |
| 20260906044549 | 73 | 0 | 0.0 | 0.0 | 0.00 | 0.29 | 0.00 | 97 | 1011.2 |
| 20260906044034 | 73 | 0 | 0.0 | 0.0 | 0.00 | 0.29 | 0.00 | 97 | 1011.1 |
| 20260906043534 | 73 | 0 | 0.0 | 0.0 | 0.00 | 0.29 | 0.00 | 97 | 1011.0 |
| 20260906043045 | 73 | 0 | 0.0 | 0.0 | 0.00 | 0.29 | 0.00 | 97 | 1011.0 |
| 20260906042533 | 73 | 0 | 0.0 | 0.0 | 0.00 | 0.29 | 0.00 | 97 | 1011.0 |
| 20260906042035 | 73 | 0 | 0.0 | 0.0 | 0.00 | 0.29 | 0.00 | 97 | 1011.0 |
| 20260906041547 | 73 | 0 | 0.0 | 0.0 | 0.00 | 0.29 | 0.00 | 97 | 1010.9 |
| 20260906041034 | 73 | 0 | 0.0 | 0.0 | 0.00 | 0.29 | 0.00 | 97 | 1010.9 |
| 20260906040534 | 73 | 0 | 0.0 | 0.0 | 0.00 | 0.29 | 0.00 | 97 | 1010.9 |
| 20260906040055 | 73 | 0 | 0.0 | 0.0 | 0.00 | 0.29 | 0.00 | 97 | 1010.9 |
| 20260906035534 | 73 | 0 | 0.0 | 0.0 | 0.00 | 0.29 | 0.29 | 97 | 1010.8 |
| 20260906035034 | 73 | 0 | 0.0 | 0.0 | 0.00 | 0.29 | 0.29 | 97 | 1010.8 |
| 20260906034556 | 73 | 0 | 0.0 | 0.0 | 0.00 | 0.29 | 0.29 | 97 | 1010.8 |
| 20260906034032 | 73 | 0 | 0.0 | 0.0 | 0.00 | 0.29 | 0.29 | 97 | 1010.8 |
| 20260906033533 | 73 | 0 | 0.0 | 0.0 | 0.00 | 0.29 | 0.29 | 96 | 1010.8 |
| 20260906033049 | 73 | 0 | 0.0 | 0.0 | 0.00 | 0.29 | 0.29 | 97 | 1010.9 |
| 20260906032531 | 73 | 0 | 0.0 | 0.0 | 0.00 | 0.29 | 0.29 | 97 | 1010.9 |
| 20260906032033 | 73 | 0 | 0.0 | 0.0 | 0.00 | 0.29 | 0.29 | 97 | 1011.0 |
| 20260906031554 | 73 | 0 | 0.0 | 0.0 | 0.00 | 0.29 | 0.29 | 96 | 1011.0 |
| 20260906031032 | 73 | 0 | 0.0 | 0.0 | 0.00 | 0.29 | 0.29 | 97 | 1011.1 |
| 20260906030533 | 73 | 0 | 0.0 | 0.0 | 0.00 | 0.29 | 0.29 | 96 | 1011.2 |
| 20260906030053 | 73 | 0 | 0.0 | 0.0 | 0.00 | 0.29 | 0.29 | 96 | 1011.1 |
| 20260906025532 | 73 | 0 | 0.0 | 0.0 | 0.00 | 0.29 | 0.29 | 97 | 1011.2 |
| 20260906025032 | 73 | 0 | 0.0 | 0.0 | 0.00 | 0.29 | 0.29 | 97 | 1011.3 |
| 20260906024548 | 73 | 0 | 0.0 | 0.0 | 0.00 | 0.29 | 0.29 | 97 | 1011.3 |
| 20260906024034 | 73 | 0 | 0.0 | 0.0 | 0.00 | 0.29 | 0.29 | 97 | 1011.4 |
| 20260906023532 | 73 | 0 | 0.0 | 0.0 | 0.00 | 0.29 | 0.29 | 96 | 1011.4 |
| 20260906023106 | 74 | 0 | 0.0 | 0.0 | 0.00 | 0.29 | 0.29 | 96 | 1011.6 |
| 20260906022532 | 74 | 0 | 0.0 | 0.0 | 0.00 | 0.29 | 0.29 | 96 | 1011.6 |
| 20260906022035 | 74 | 0 | 0.0 | 0.0 | 0.01 | 0.29 | 0.29 | 96 | 1011.7 |
| 20260906021555 | 74 | 0 | 0.0 | 0.0 | 0.01 | 0.29 | 0.29 | 96 | 1011.6 |
| 20260906021032 | 74 | 0 | 0.0 | 0.0 | 0.01 | 0.29 | 0.29 | 97 | 1011.4 |
| 20260906020532 | 74 | 0 | 0.0 | 3.0 | 0.01 | 0.29 | 0.29 | 97 | 1011.3 |
| 20260906015532 | 74 | 0 | 0.0 | 0.0 | 0.01 | 0.29 | 0.29 | 97 | 1011.6 |
| 20260906015032 | 74 | 0 | 0.0 | 0.0 | 0.01 | 0.29 | 0.29 | 97 | 1011.6 |
| 20260906014553 | 74 | 0 | 0.0 | 0.0 | 0.01 | 0.29 | 0.29 | 97 | 1011.5 |
| 20260906014031 | 74 | 0 | 0.0 | 0.0 | 0.01 | 0.29 | 0.29 | 97 | 1011.2 |
| 20260906013532 | 74 | 0 | 0.0 | 0.0 | 0.01 | 0.29 | 0.29 | 97 | 1011.2 |
| 20260906013056 | 74 | 0 | 0.0 | 0.0 | 0.01 | 0.29 | 0.29 | 97 | 1011.2 |
| 20260906012533 | 74 | 0 | 0.0 | 0.0 | 0.01 | 0.29 | 0.29 | 96 | 1011.0 |
| 20260906012032 | 74 | 0 | 0.0 | 0.0 | 0.00 | 0.28 | 0.28 | 96 | 1010.9 |
| 20260906011604 | 74 | 0 | 0.0 | 0.0 | 0.00 | 0.28 | 0.28 | 97 | 1010.8 |
| 20260906011035 | 74 | 0 | 0.0 | 0.0 | 0.00 | 0.28 | 0.28 | 96 | 1010.7 |
| 20260906010534 | 74 | 0 | 0.0 | 0.0 | 0.00 | 0.28 | 0.28 | 96 | 1010.4 |
| 20260906010053 | 74 | 0 | 0.0 | 0.0 | 0.00 | 0.28 | 0.28 | 96 | 1010.1 |
| 20260906005532 | 74 | 0 | 0.0 | 0.0 | 0.00 | 0.28 | 0.28 | 96 | 1009.9 |
| 20260906005034 | 74 | 0 | 0.0 | 0.0 | 0.00 | 0.28 | 0.28 | 96 | 1009.7 |
| 20260906004556 | 74 | 0 | 0.0 | 0.0 | 0.00 | 0.28 | 0.28 | 96 | 1009.6 |
| 20260906004032 | 74 | 0 | 0.0 | 0.0 | 0.00 | 0.28 | 0.28 | 96 | 1009.4 |
| 20260906003532 | 75 | 0 | 0.0 | 0.0 | 0.00 | 0.28 | 0.28 | 96 | 1009.2 |
| 20260906003053 | 75 | 0 | 0.0 | 0.0 | 0.00 | 0.28 | 0.28 | 96 | 1009.2 |
| 20260906002532 | 75 | 0 | 0.0 | 0.0 | 0.00 | 0.28 | 0.28 | 96 | 1009.4 |
| 20260906002032 | 75 | 0 | 0.0 | 0.0 | 0.00 | 0.28 | 0.28 | 96 | 1009.8 |
| 20260906001551 | 75 | 0 | 0.0 | 2.0 | 0.00 | 0.28 | 0.28 | 96 | 1009.9 |
| 20260906001034 | 75 | 0 | 0.0 | 2.0 | 0.00 | 0.28 | 0.28 | 96 | 1009.7 |
| 20260906000532 | 75 | 36 | 0.0 | 1.0 | 0.00 | 0.28 | 0.28 | 96 | 1009.7 |
| 20260906000049 | 75 | 0 | 0.0 | 0.0 | 0.01 | 0.28 | 0.28 | 96 | 1009.7 |
| 20260905235532 | 75 | 0 | 0.0 | 0.0 | 0.01 | 0.28 | 0.28 | 96 | 1009.6 |
| 20260905235032 | 75 | 0 | 0.0 | 0.0 | 0.02 | 0.28 | 0.28 | 96 | 1009.2 |
| 20260905234600 | 75 | 0 | 0.0 | 0.0 | 0.03 | 0.28 | 0.28 | 96 | 1009.2 |
| 20260905234032 | 74 | 0 | 0.0 | 0.0 | 0.03 | 0.28 | 0.28 | 96 | 1009.5 |
| 20260905233534 | 74 | 0 | 0.0 | 0.0 | 0.03 | 0.28 | 0.28 | 96 | 1009.6 |
| 20260905233057 | 74 | 0 | 0.0 | 0.0 | 0.03 | 0.28 | 0.28 | 96 | 1009.8 |
| 20260905232534 | 74 | 0 | 0.0 | 0.0 | 0.03 | 0.28 | 0.28 | 96 | 1010.1 |
| 20260905232032 | 74 | 0 | 0.0 | 0.0 | 0.03 | 0.28 | 0.28 | 96 | 1010.7 |
| 20260905231551 | 74 | 0 | 0.0 | 4.0 | 0.03 | 0.28 | 0.28 | 96 | 1011.3 |
| 20260905231036 | 74 | 0 | 0.0 | 5.0 | 0.03 | 0.28 | 0.28 | 96 | 1010.4 |
| 20260905230532 | 74 | 56 | 1.0 | 5.0 | 0.03 | 0.28 | 0.28 | 96 | 1010.4 |
| 20260905230057 | 74 | 158 | 0.0 | 3.0 | 0.02 | 0.27 | 0.27 | 96 | 1010.6 |
| 20260905225535 | 74 | 0 | 0.0 | 2.0 | 0.02 | 0.26 | 0.26 | 96 | 1009.9 |
| 20260905225032 | 74 | 0 | 0.0 | 2.0 | 0.03 | 0.26 | 0.26 | 95 | 1009.7 |
| 20260905224559 | 74 | 0 | 0.0 | 2.0 | 0.06 | 0.25 | 0.25 | 96 | 1009.9 |
| 20260905224033 | 74 | 0 | 0.0 | 2.0 | 0.07 | 0.25 | 0.25 | 96 | 1010.1 |
| 20260905223535 | 74 | 0 | 0.0 | 0.0 | 0.08 | 0.25 | 0.25 | 96 | 1010.2 |
| 20260905223055 | 74 | 0 | 0.0 | 0.0 | 0.08 | 0.25 | 0.25 | 95 | 1009.8 |
| 20260905222533 | 74 | 0 | 0.0 | 0.0 | 0.08 | 0.25 | 0.25 | 95 | 1009.5 |
| 20260905222032 | 74 | 0 | 0.0 | 2.0 | 0.08 | 0.25 | 0.25 | 95 | 1009.5 |
| 20260905221549 | 74 | 0 | 0.0 | 3.0 | 0.08 | 0.25 | 0.25 | 95 | 1009.1 |
| 20260905221029 | 74 | 0 | 0.0 | 3.0 | 0.08 | 0.25 | 0.25 | 95 | 1008.9 |
| 20260905220532 | 74 | 39 | 1.0 | 3.0 | 0.08 | 0.25 | 0.25 | 95 | 1009.7 |
| 20260905220057 | 74 | 0 | 0.0 | 2.0 | 0.08 | 0.25 | 0.25 | 95 | 1009.8 |
| 20260905215533 | 75 | 0 | 0.0 | 1.0 | 0.07 | 0.24 | 0.24 | 95 | 1010.6 |
| 20260905215033 | 75 | 0 | 0.0 | 1.0 | 0.06 | 0.23 | 0.23 | 94 | 1010.2 |
| 20260905214554 | 75 | 0 | 0.0 | 2.0 | 0.02 | 0.19 | 0.19 | 95 | 1011.1 |
| 20260905214032 | 75 | 0 | 0.0 | 3.0 | 0.01 | 0.18 | 0.18 | 95 | 1010.5 |
| 20260905213531 | 75 | 0 | 0.0 | 4.0 | 0.00 | 0.17 | 0.17 | 94 | 1009.5 |
| 20260905213050 | 75 | 171 | 0.0 | 4.0 | 0.00 | 0.17 | 0.17 | 94 | 1009.2 |
| 20260905212534 | 76 | 0 | 0.0 | 3.0 | 0.00 | 0.17 | 0.17 | 94 | 1008.9 |
| 20260905212032 | 76 | 0 | 0.0 | 1.0 | 0.00 | 0.17 | 0.17 | 94 | 1009.4 |
| 20260905211608 | 77 | 0 | 0.0 | 1.0 | 0.00 | 0.17 | 0.17 | 95 | 1009.6 |
| 20260905211033 | 77 | 0 | 0.0 | 1.0 | 0.00 | 0.17 | 0.17 | 95 | 1009.3 |
| 20260905210533 | 77 | 0 | 0.0 | 3.0 | 0.00 | 0.17 | 0.17 | 95 | 1009.4 |
| 20260905210108 | 76 | 0 | 0.0 | 5.0 | 0.00 | 0.17 | 0.17 | 94 | 1009.6 |
| 20260905205532 | 77 | 0 | 0.0 | 5.0 | 0.00 | 0.17 | 0.17 | 95 | 1009.9 |
| 20260905205033 | 78 | 185 | 0.0 | 2.0 | 0.00 | 0.17 | 0.17 | 95 | 1009.8 |
| 20260905204553 | 78 | 0 | 0.0 | 0.0 | 0.00 | 0.17 | 0.17 | 96 | 1008.9 |
| 20260905204029 | 78 | 0 | 0.0 | 1.0 | 0.01 | 0.17 | 0.17 | 96 | 1008.9 |
| 20260905203532 | 77 | 0 | 0.0 | 1.0 | 0.01 | 0.17 | 0.17 | 95 | 1009.1 |
| 20260905203049 | 77 | 0 | 0.0 | 0.0 | 0.03 | 0.17 | 0.17 | 95 | 1009.2 |
| 20260905202533 | 77 | 0 | 0.0 | 2.0 | 0.10 | 0.17 | 0.17 | 95 | 1009.1 |
| 20260905202032 | 77 | 0 | 0.0 | 2.0 | 0.14 | 0.17 | 0.17 | 94 | 1008.1 |
| 20260905201556 | 77 | 58 | 0.0 | 0.0 | 0.17 | 0.17 | 0.17 | 95 | 1008.4 |
| 20260905201028 | 77 | 0 | 0.0 | 1.0 | 0.17 | 0.17 | 0.17 | 95 | 1009.0 |
| 20260905200536 | 76 | 0 | 0.0 | 1.0 | 0.17 | 0.17 | 0.17 | 94 | 1008.9 |
| 20260905200059 | 76 | 0 | 0.0 | 1.0 | 0.17 | 0.17 | 0.17 | 94 | 1009.0 |
| 20260905195535 | 76 | 0 | 0.0 | 0.0 | 0.17 | 0.17 | 0.17 | 93 | 1009.2 |
| 20260905195032 | 77 | 0 | 0.0 | 0.0 | 0.17 | 0.17 | 0.17 | 92 | 1009.4 |
| 20260905194554 | 78 | 0 | 0.0 | 4.0 | 0.17 | 0.17 | 0.17 | 91 | 1009.0 |
| 20260905194032 | 80 | 0 | 0.0 | 4.0 | 0.16 | 0.16 | 0.16 | 90 | 1009.2 |
| 20260905193532 | 82 | 0 | 0.0 | 0.0 | 0.16 | 0.16 | 0.16 | 91 | 1009.4 |
| 20260905193050 | 84 | 0 | 0.0 | 0.0 | 0.13 | 0.13 | 0.13 | 92 | 1009.1 |
| 20260905192531 | 85 | 0 | 0.0 | 0.0 | 0.06 | 0.06 | 0.06 | 90 | 1008.9 |
| 20260905192031 | 86 | 0 | 0.0 | 0.0 | 0.01 | 0.01 | 0.01 | 85 | 1009.0 |
| 20260905191555 | 87 | 0 | 0.0 | 0.0 | 0.00 | 0.00 | 0.00 | 81 | 1009.1 |
| 20260905191035 | 89 | 0 | 0.0 | 0.0 | 0.00 | 0.00 | 0.00 | 80 | 1008.9 |
| 20260905190533 | 90 | 0 | 0.0 | 0.0 | 0.00 | 0.00 | 0.00 | 73 | 1009.1 |
| 20260905190059 | 91 | 0 | 0.0 | 0.0 | 0.00 | 0.00 | 0.00 | 75 | 1009.2 |
| 20260905185532 | 91 | 0 | 0.0 | 0.0 | 0.00 | 0.00 | 0.00 | 76 | 1009.2 |
| 20260905185032 | 91 | 0 | 0.0 | 0.0 | 0.00 | 0.00 | 0.00 | 74 | 1009.4 |
| 20260905184558 | 91 | 0 | 0.0 | 0.0 | 0.00 | 0.00 | 0.00 | 72 | 1009.5 |
| 20260905184032 | 90 | 0 | 0.0 | 0.0 | 0.00 | 0.00 | 0.00 | 79 | 1009.6 |
| 20260905183533 | 90 | 0 | 0.0 | 0.0 | 0.00 | 0.00 | 0.00 | 80 | 1009.6 |
| 20260905183054 | 90 | 0 | 0.0 | 0.0 | 0.00 | 0.00 | 0.00 | 81 | 1009.8 |
| 20260905182532 | 90 | 0 | 0.0 | 0.0 | 0.00 | 0.00 | 0.00 | 80 | 1009.8 |
| 20260905182033 | 90 | 0 | 0.0 | 0.0 | 0.00 | 0.00 | 0.00 | 78 | 1009.9 |
| 20260905181556 | 90 | 0 | 0.0 | 0.0 | 0.00 | 0.00 | 0.00 | 80 | 1010.0 |
| 20260905181032 | 90 | 0 | 0.0 | 0.0 | 0.00 | 0.00 | 0.00 | 79 | 1009.9 |
| 20260905180534 | 90 | 0 | 0.0 | 0.0 | 0.00 | 0.00 | 0.00 | 79 | 1010.0 |
| 20260905180052 | 90 | 0 | 0.0 | 0.0 | 0.00 | 0.00 | 0.00 | 76 | 1010.0 |
| 20260905175534 | 90 | 0 | 0.0 | 0.0 | 0.00 | 0.00 | 0.00 | 78 | 1010.0 |
| 20260905175032 | 91 | 0 | 0.0 | 0.0 | 0.00 | 0.00 | 0.00 | 74 | 1010.0 |
| 20260905174547 | 91 | 0 | 0.0 | 0.0 | 0.00 | 0.00 | 0.00 | 71 | 1010.0 |
| 20260905174035 | 90 | 0 | 0.0 | 0.0 | 0.00 | 0.00 | 0.00 | 81 | 1010.0 |
| 20260905173532 | 91 | 0 | 0.0 | 0.0 | 0.00 | 0.00 | 0.00 | 77 | 1010.1 |
| 20260905173055 | 91 | 0 | 0.0 | 0.0 | 0.00 | 0.00 | 0.00 | 77 | 1010.2 |
| 20260905172533 | 92 | 0 | 0.0 | 0.0 | 0.00 | 0.00 | 0.00 | 77 | 1010.3 |
| 20260905172033 | 92 | 0 | 0.0 | 0.0 | 0.00 | 0.00 | 0.00 | 75 | 1010.4 |
| 20260905171554 | 92 | 0 | 0.0 | 0.0 | 0.00 | 0.00 | 0.00 | 77 | 1010.4 |
| 20260905171032 | 91 | 0 | 0.0 | 0.0 | 0.00 | 0.00 | 0.00 | 76 | 1010.4 |
| 20260905170532 | 91 | 0 | 0.0 | 0.0 | 0.00 | 0.00 | 0.00 | 78 | 1010.6 |
| 20260905170055 | 91 | 0 | 0.0 | 0.0 | 0.00 | 0.00 | 0.00 | 79 | 1010.7 |
| 20260905165532 | 90 | 0 | 0.0 | 1.0 | 0.00 | 0.00 | 0.00 | 78 | 1010.7 |
| 20260905165033 | 92 | 0 | 0.0 | 1.0 | 0.00 | 0.00 | 0.00 | 78 | 1010.8 |
| 20260905164549 | 91 | 0 | 0.0 | 1.0 | 0.00 | 0.00 | 0.00 | 76 | 1010.9 |
| 20260905164034 | 91 | 0 | 0.0 | 0.0 | 0.00 | 0.00 | 0.00 | 77 | 1011.0 |
| 20260905163535 | 92 | 0 | 0.0 | 0.0 | 0.00 | 0.00 | 0.00 | 77 | 1011.1 |
| 20260905163057 | 91 | 0 | 0.0 | 0.0 | 0.00 | 0.00 | 0.00 | 80 | 1011.3 |
| 20260905162535 | 91 | 0 | 0.0 | 0.0 | 0.00 | 0.00 | 0.00 | 76 | 1011.3 |
| 20260905162032 | 92 | 0 | 0.0 | 0.0 | 0.00 | 0.00 | 0.00 | 80 | 1011.4 |
| 20260905161555 | 92 | 0 | 0.0 | 0.0 | 0.00 | 0.00 | 0.00 | 73 | 1011.5 |
| 20260905161032 | 91 | 0 | 0.0 | 0.0 | 0.00 | 0.00 | 0.00 | 79 | 1011.5 |
| 20260905160532 | 91 | 0 | 0.0 | 0.0 | 0.00 | 0.00 | 0.00 | 75 | 1011.5 |
| 20260905160057 | 91 | 0 | 0.0 | 0.0 | 0.00 | 0.00 | 0.00 | 79 | 1011.7 |
| 20260905155534 | 91 | 0 | 0.0 | 0.0 | 0.00 | 0.00 | 0.00 | 77 | 1011.6 |
| 20260905155032 | 91 | 0 | 0.0 | 0.0 | 0.00 | 0.00 | 0.00 | 75 | 1011.7 |
| 20260905154548 | 91 | 0 | 0.0 | 0.0 | 0.00 | 0.00 | 0.00 | 75 | 1011.8 |
| 20260905154033 | 90 | 0 | 0.0 | 0.0 | 0.00 | 0.00 | 0.00 | 82 | 1011.7 |
| 20260905153533 | 90 | 0 | 0.0 | 0.0 | 0.00 | 0.00 | 0.00 | 82 | 1011.8 |
| 20260905153101 | 90 | 0 | 0.0 | 0.0 | 0.00 | 0.00 | 0.00 | 77 | 1011.8 |
| 20260905152533 | 89 | 0 | 0.0 | 0.0 | 0.00 | 0.00 | 0.00 | 76 | 1011.8 |
| 20260905152035 | 89 | 0 | 0.0 | 0.0 | 0.00 | 0.00 | 0.00 | 78 | 1011.7 |
| 20260905151558 | 89 | 0 | 0.0 | 0.0 | 0.00 | 0.00 | 0.00 | 78 | 1011.8 |
| 20260905151032 | 89 | 0 | 0.0 | 0.0 | 0.00 | 0.00 | 0.00 | 79 | 1011.7 |